FDX8NL EGPH-EGCC

Flight info

Callsign FDX8NL
Flight time 0h 38m
Altitude 25000
Route GOSAM P600 FENIK L612 LAKEY
Aircraft B738/M-SDE2E3FGHIRWXY/LB1

Departure

Time 2026-05-07 05:14
Airport Edinburgh Airport (EGPH)

Arrival

Time 2026-05-07 05:52
Airport Manchester Airport (EGCC)
Time Latitude Longitude Altitude Speed Heading
2026-05-07 04:46 55.95143 -3.35362 112 ft 0 kts 28°
2026-05-07 04:46 55.95140 -3.35364 116 ft 0 kts 28°
2026-05-07 04:47 55.95143 -3.35362 112 ft 0 kts 28°
2026-05-07 05:07 55.95125 -3.35376 114 ft 4 kts
2026-05-07 05:07 55.95101 -3.35371 112 ft 4 kts 323°
2026-05-07 05:07 55.95088 -3.35346 112 ft 0 kts 298°
2026-05-07 05:10 55.95088 -3.35347 112 ft 0 kts 298°
2026-05-07 05:10 55.95096 -3.35374 114 ft 5 kts 298°
2026-05-07 05:10 55.95123 -3.35459 112 ft 10 kts 298°
2026-05-07 05:10 55.95162 -3.35587 112 ft 14 kts 298°
2026-05-07 05:11 55.95212 -3.35753 114 ft 17 kts 297°
2026-05-07 05:11 55.95267 -3.35827 111 ft 10 kts 359°
2026-05-07 05:11 55.95316 -3.35745 115 ft 11 kts 59°
2026-05-07 05:11 55.95360 -3.35614 115 ft 13 kts 59°
2026-05-07 05:12 55.95412 -3.35458 114 ft 16 kts 58°
2026-05-07 05:12 55.95510 -3.35449 112 ft 17 kts 329°
2026-05-07 05:12 55.95558 -3.35598 110 ft 13 kts 249°
2026-05-07 05:12 55.95541 -3.35652 111 ft 0 kts 239°
2026-05-07 05:13 55.95535 -3.35672 112 ft 14 kts 238°
2026-05-07 05:13 55.95312 -3.36329 110 ft 109 kts 239°
2026-05-07 05:13 55.94776 -3.37905 224 ft 180 kts 238°
2026-05-07 05:14 55.94034 -3.39981 721 ft 218 kts 237°
2026-05-07 05:14 55.93235 -3.42303 1816 ft 216 kts 237°
2026-05-07 05:14 55.92447 -3.44612 2765 ft 226 kts 237°
2026-05-07 05:14 55.91604 -3.47068 3367 ft 242 kts 237°
2026-05-07 05:15 55.90694 -3.49761 3941 ft 260 kts 242°
2026-05-07 05:15 55.90155 -3.52837 5008 ft 259 kts 260°
2026-05-07 05:15 55.89861 -3.56015 5754 ft 262 kts 262°
2026-05-07 05:15 55.89578 -3.59219 6004 ft 264 kts 261°
2026-05-07 05:16 55.89276 -3.62463 5997 ft 266 kts 261°
2026-05-07 05:16 55.88965 -3.65692 6002 ft 263 kts 260°
2026-05-07 05:16 55.88651 -3.68889 6000 ft 261 kts 260°
2026-05-07 05:16 55.88333 -3.72063 6002 ft 260 kts 260°
2026-05-07 05:17 55.88014 -3.75222 6001 ft 259 kts 260°
2026-05-07 05:17 55.87695 -3.78370 5999 ft 259 kts 260°
2026-05-07 05:17 55.87377 -3.81550 6117 ft 265 kts 260°
2026-05-07 05:17 55.87055 -3.84796 6962 ft 266 kts 260°
2026-05-07 05:18 55.86733 -3.88037 7995 ft 266 kts 260°
2026-05-07 05:18 55.86406 -3.91315 8907 ft 271 kts 260°
2026-05-07 05:18 55.86074 -3.94640 9818 ft 276 kts 260°
2026-05-07 05:18 55.85734 -3.98042 10502 ft 287 kts 260°
2026-05-07 05:19 55.85365 -4.01712 10712 ft 314 kts 260°
2026-05-07 05:19 55.84964 -4.05673 11090 ft 332 kts 260°
2026-05-07 05:19 55.84497 -4.09743 11823 ft 339 kts 252°
2026-05-07 05:19 55.83248 -4.13297 12676 ft 344 kts 225°
2026-05-07 05:20 55.82879 -4.13888 12877 ft 344 kts 221°
2026-05-07 05:20 55.81991 -4.15137 13318 ft 345 kts 219°
2026-05-07 05:20 55.80160 -4.17929 14070 ft 349 kts 225°
2026-05-07 05:20 55.78430 -4.20992 14779 ft 353 kts 224°
2026-05-07 05:21 55.76447 -4.23623 15535 ft 358 kts 216°
2026-05-07 05:21 55.71847 -4.27042 16974 ft 374 kts 185°
2026-05-07 05:21 55.69234 -4.26632 17705 ft 383 kts 169°
2026-05-07 05:22 55.66751 -4.24802 18372 ft 392 kts 155°
2026-05-07 05:22 55.64350 -4.22447 18944 ft 397 kts 153°
2026-05-07 05:22 55.61938 -4.19991 19519 ft 401 kts 153°
2026-05-07 05:22 55.59510 -4.17528 20108 ft 405 kts 153°
2026-05-07 05:23 55.57043 -4.15067 20698 ft 408 kts 154°
2026-05-07 05:23 55.54551 -4.12616 21268 ft 412 kts 154°
2026-05-07 05:23 55.52032 -4.10161 21826 ft 415 kts 154°
2026-05-07 05:23 55.49490 -4.07692 22389 ft 419 kts 154°
2026-05-07 05:24 55.46925 -4.05203 22923 ft 423 kts 154°
2026-05-07 05:24 55.44340 -4.02692 23455 ft 426 kts 154°
2026-05-07 05:24 55.41733 -4.00161 23920 ft 429 kts 154°
2026-05-07 05:24 55.39108 -3.97615 24393 ft 432 kts 154°
2026-05-07 05:25 55.36475 -3.95065 24887 ft 432 kts 154°
2026-05-07 05:25 55.33830 -3.92507 24978 ft 433 kts 154°
2026-05-07 05:25 55.31204 -3.89970 25005 ft 430 kts 154°
2026-05-07 05:25 55.28588 -3.87447 25005 ft 430 kts 154°
2026-05-07 05:26 55.25963 -3.84920 25012 ft 431 kts 154°
2026-05-07 05:26 55.23330 -3.82391 25010 ft 431 kts 154°
2026-05-07 05:26 55.20702 -3.79870 25006 ft 431 kts 154°
2026-05-07 05:26 55.18105 -3.77382 25010 ft 431 kts 154°
2026-05-07 05:27 55.15435 -3.74828 25015 ft 431 kts 154°
2026-05-07 05:27 55.12804 -3.72313 25006 ft 431 kts 154°
2026-05-07 05:27 55.10209 -3.69837 25010 ft 431 kts 154°
2026-05-07 05:27 55.07577 -3.67328 25006 ft 431 kts 154°
2026-05-07 05:28 55.04947 -3.64824 25007 ft 430 kts 154°
2026-05-07 05:28 55.02319 -3.62324 25011 ft 430 kts 154°
2026-05-07 05:28 54.99690 -3.59830 25009 ft 430 kts 154°
2026-05-07 05:28 54.97066 -3.57347 25007 ft 430 kts 154°
2026-05-07 05:29 54.94438 -3.54875 25010 ft 429 kts 154°
2026-05-07 05:29 54.91808 -3.52408 25009 ft 429 kts 154°
2026-05-07 05:29 54.89179 -3.49944 25010 ft 429 kts 154°
2026-05-07 05:29 54.86555 -3.47488 25005 ft 429 kts 154°
2026-05-07 05:30 54.83927 -3.45030 25008 ft 429 kts 154°
2026-05-07 05:30 54.81302 -3.42579 25006 ft 429 kts 154°
2026-05-07 05:30 54.78676 -3.40128 25012 ft 429 kts 154°
2026-05-07 05:30 54.76044 -3.37676 25011 ft 429 kts 154°
2026-05-07 05:31 54.73417 -3.35233 25012 ft 429 kts 154°
2026-05-07 05:31 54.70766 -3.32899 25009 ft 428 kts 157°
2026-05-07 05:31 54.68048 -3.30800 25011 ft 427 kts 159°
2026-05-07 05:31 54.65311 -3.28795 25018 ft 427 kts 159°
2026-05-07 05:32 54.62574 -3.26803 25016 ft 427 kts 159°
2026-05-07 05:32 54.59869 -3.24815 24999 ft 415 kts 159°
2026-05-07 05:32 54.57259 -3.22874 25000 ft 407 kts 159°
2026-05-07 05:32 54.54666 -3.20937 25010 ft 405 kts 159°
2026-05-07 05:33 54.52079 -3.19004 25018 ft 406 kts 159°
2026-05-07 05:33 54.49473 -3.17060 24672 ft 409 kts 159°
2026-05-07 05:33 54.46880 -3.15127 24268 ft 404 kts 159°
2026-05-07 05:33 54.44308 -3.13211 23821 ft 401 kts 159°
2026-05-07 05:34 54.41759 -3.11315 23329 ft 398 kts 159°
2026-05-07 05:34 54.39232 -3.09438 22816 ft 394 kts 159°
2026-05-07 05:34 54.36722 -3.07575 22338 ft 390 kts 159°
2026-05-07 05:34 54.34245 -3.05740 21885 ft 386 kts 159°
2026-05-07 05:35 54.31790 -3.03923 21416 ft 383 kts 159°
2026-05-07 05:35 54.29357 -3.02124 20974 ft 379 kts 159°
2026-05-07 05:35 54.26945 -3.00345 20542 ft 376 kts 159°
2026-05-07 05:35 54.24551 -2.98580 20114 ft 373 kts 158°
2026-05-07 05:36 54.22238 -2.96572 19624 ft 374 kts 151°
2026-05-07 05:36 54.20043 -2.94184 19150 ft 374 kts 148°
2026-05-07 05:36 54.17892 -2.91672 18671 ft 374 kts 147°
2026-05-07 05:36 54.15757 -2.89158 18169 ft 373 kts 147°
2026-05-07 05:37 54.13618 -2.86669 17624 ft 371 kts 148°
2026-05-07 05:37 54.11483 -2.84223 17113 ft 369 kts 148°
2026-05-07 05:37 54.09357 -2.81815 16640 ft 366 kts 148°
2026-05-07 05:37 54.07241 -2.79438 16156 ft 363 kts 148°
2026-05-07 05:38 54.05134 -2.77085 15681 ft 361 kts 148°
2026-05-07 05:38 54.03038 -2.74749 15210 ft 359 kts 149°
2026-05-07 05:38 54.00949 -2.72426 14757 ft 357 kts 149°
2026-05-07 05:38 53.98873 -2.70120 14284 ft 356 kts 149°
2026-05-07 05:39 53.96807 -2.67828 13826 ft 354 kts 149°
2026-05-07 05:39 53.94748 -2.65547 13322 ft 353 kts 149°
2026-05-07 05:39 53.92696 -2.63275 12832 ft 351 kts 149°
2026-05-07 05:39 53.90662 -2.61025 12365 ft 348 kts 148°
2026-05-07 05:40 53.88650 -2.58801 11910 ft 340 kts 148°
2026-05-07 05:40 53.86728 -2.56680 11481 ft 328 kts 148°
2026-05-07 05:40 53.84841 -2.54601 11055 ft 318 kts 148°
2026-05-07 05:40 53.83010 -2.52585 10648 ft 310 kts 148°
2026-05-07 05:41 53.81228 -2.50627 10251 ft 301 kts 148°
2026-05-07 05:41 53.79493 -2.48720 9943 ft 292 kts 148°
2026-05-07 05:41 53.77800 -2.46861 9583 ft 290 kts 148°
2026-05-07 05:41 53.76137 -2.45038 9145 ft 285 kts 148°
2026-05-07 05:42 53.74486 -2.43228 8724 ft 280 kts 148°
2026-05-07 05:42 53.72868 -2.41455 8342 ft 274 kts 148°
2026-05-07 05:42 53.71285 -2.39723 7977 ft 268 kts 149°
2026-05-07 05:42 53.69736 -2.38031 7635 ft 264 kts 149°
2026-05-07 05:43 53.68206 -2.36361 7292 ft 259 kts 149°
2026-05-07 05:43 53.66730 -2.34666 6984 ft 254 kts 141°
2026-05-07 05:43 53.65509 -2.32573 6793 ft 250 kts 133°
2026-05-07 05:43 53.64374 -2.30336 6618 ft 253 kts 132°
2026-05-07 05:44 53.63226 -2.28040 6413 ft 259 kts 132°
2026-05-07 05:44 53.62063 -2.25731 6177 ft 258 kts 132°
2026-05-07 05:44 53.60904 -2.23455 5949 ft 254 kts 132°
2026-05-07 05:44 53.59757 -2.21217 5743 ft 250 kts 132°
2026-05-07 05:45 53.58625 -2.19021 5536 ft 247 kts 133°
2026-05-07 05:45 53.57507 -2.16862 5344 ft 243 kts 133°
2026-05-07 05:45 53.56406 -2.14739 5147 ft 239 kts 133°
2026-05-07 05:45 53.55320 -2.12653 4968 ft 234 kts 133°
2026-05-07 05:46 53.54270 -2.10633 4797 ft 225 kts 133°
2026-05-07 05:46 53.53256 -2.08691 4586 ft 216 kts 133°
2026-05-07 05:46 53.52282 -2.06828 4408 ft 209 kts 133°
2026-05-07 05:46 53.51338 -2.05024 4249 ft 201 kts 133°
2026-05-07 05:47 53.50431 -2.03291 4104 ft 195 kts 133°
2026-05-07 05:47 53.49373 -2.02052 3956 ft 180 kts 173°
2026-05-07 05:47 53.48230 -2.02535 3964 ft 180 kts 217°
2026-05-07 05:47 53.47253 -2.03899 3731 ft 183 kts 220°
2026-05-07 05:48 53.46335 -2.05333 3496 ft 177 kts 222°
2026-05-07 05:48 53.45496 -2.06732 3291 ft 161 kts 225°
2026-05-07 05:48 53.44781 -2.08085 3057 ft 148 kts 227°
2026-05-07 05:48 53.44127 -2.09401 2845 ft 145 kts 228°
2026-05-07 05:49 53.43492 -2.10701 2640 ft 144 kts 228°
2026-05-07 05:49 53.42859 -2.12005 2454 ft 144 kts 228°
2026-05-07 05:49 53.42228 -2.13308 2263 ft 145 kts 228°
2026-05-07 05:49 53.41594 -2.14619 2061 ft 144 kts 227°
2026-05-07 05:50 53.40969 -2.15914 1864 ft 142 kts 227°
2026-05-07 05:50 53.40343 -2.17207 1660 ft 144 kts 227°
2026-05-07 05:50 53.39712 -2.18512 1465 ft 145 kts 227°
2026-05-07 05:50 53.39076 -2.19827 1250 ft 145 kts 228°
2026-05-07 05:51 53.38444 -2.21153 1064 ft 146 kts 229°
2026-05-07 05:51 53.37801 -2.22471 843 ft 147 kts 229°
2026-05-07 05:51 53.37160 -2.23810 631 ft 147 kts 229°
2026-05-07 05:51 53.36516 -2.25128 408 ft 146 kts 230°
2026-05-07 05:52 53.35894 -2.26418 263 ft 137 kts 231°
2026-05-07 05:52 53.35373 -2.27498 251 ft 98 kts 231°
2026-05-07 05:52 53.35056 -2.28158 229 ft 53 kts 232°
2026-05-07 05:52 53.34948 -2.28578 222 ft 29 kts 260°
2026-05-07 05:53 53.35003 -2.28735 220 ft 14 kts 16°
2026-05-07 05:53 53.35076 -2.28626 224 ft 17 kts 51°
2026-05-07 05:53 53.35156 -2.28457 229 ft 20 kts 51°
2026-05-07 05:53 53.35248 -2.28269 235 ft 22 kts 49°
2026-05-07 05:54 53.35361 -2.28075 240 ft 25 kts 43°
2026-05-07 05:54 53.35512 -2.27915 246 ft 26 kts
2026-05-07 05:54 53.35689 -2.27887 251 ft 25 kts
2026-05-07 05:54 53.35852 -2.27858 254 ft 17 kts
2026-05-07 05:55 53.35894 -2.27943 254 ft 11 kts 276°
2026-05-07 05:55 53.35898 -2.28010 254 ft 0 kts 275°